Wind_Speed
60 61 58 54 53 56 60 61 58 54 51 50 48 47 48 47 46 44 42 41 41 42 41 39 35 33 32 29 28 29 28 28 30 28 29 31 29 28 29 26 26 28 30 31 32 33 32 33 36 38 40 43 45 45 45 46 48 51 53 55 57 60 63 67 71 73 68 59 49 41 36 33 30 28 29 30 29 29 28 27 27 26 27 27 27 27 26 26
60 57 53 52 54 57 61 59 54 50 50 48 45 44 45 44 42 41 41 40 40 39 40 37 34 32 30 29 28 26 26 29 29 28 29 29 27 27 27 26 27 30 30 30 30 30 32 35 36 38 41 43 44 45 46 48 50 52 54 56 59 62 66 70 72 69 60 50 42 37 33 30 28 27 28 28 27 26 25 25 25 25 26 26 26 26 25 25
57 52 49 51 55 58 60 57 51 49 48 46 42 41 41 41 40 40 40 40 38 37 37 35 32 31 29 28 26 24 25 27 25 25 26 25 25 26 27 29 30 32 32 30 30 32 35 37 38 40 41 43 43 45 47 49 52 54 56 58 61 65 69 71 69 61 51 43 37 33 29 27 26 26 26 26 25 24 24 24 24 25 25 25 25 25 25 24
54 51 51 53 55 58 60 56 50 47 46 42 39 38 39 38 38 38 39 39 37 35 34 32 30 30 30 27 24 24 24 23 23 25 27 27 27 28 29 30 30 31 32 32 34 36 39 40 41 40 40 41 43 45 48 51 54 56 59 61 64 68 70 69 62 52 44 38 33 29 26 25 25 25 24 24 23 23 23 24 24 24 24 25 25 25 24 24
52 52 53 53 54 56 58 54 47 44 42 39 36 36 36 35 35 36 38 37 36 35 33 31 29 28 28 27 26 27 24 22 24 27 30 30 28 27 28 28 29 32 34 36 39 40 40 38 38 39 40 42 44 48 51 53 56 58 61 64 68 70 69 62 53 45 39 33 29 26 24 24 24 23 23 22 22 22 22 22 23 23 24 24 25 25 24 24
50 51 51 51 53 55 56 51 44 42 39 37 36 35 34 33 33 35 37 37 35 35 33 30 29 27 26 26 26 27 27 27 29 30 31 29 27 27 28 29 32 35 37 39 39 38 36 36 38 40 43 46 49 52 53 56 58 61 64 67 69 68 63 54 46 39 34 29 25 23 22 23 23 22 22 21 21 22 22 22 22 23 24 24 24 25 24 24
47 48 48 49 52 54 52 46 42 40 38 37 36 34 32 32 34 36 37 37 36 35 33 30 27 26 26 26 26 26 27 28 29 31 32 31 31 31 33 35 36 36 35 34 34 35 36 38 40 43 46 49 52 54 56 59 61 64 66 68 67 63 55 46 40 34 29 25 23 21 22 22 21 21 21 21 21 21 21 22 22 23 23 24 24 24 24 24
45 46 46 48 50 49 46 43 40 39 37 36 34 33 33 33 34 35 35 35 34 34 32 28 26 26 27 29 29 26 26 26 27 29 31 33 34 36 38 37 36 33 32 33 34 37 39 41 42 45 48 51 53 55 58 60 63 65 67 66 63 55 47 40 34 29 25 22 20 20 21 21 21 20 20 20 21 21 21 22 22 22 23 23 24 24 24 24
44 45 46 49 48 45 43 40 38 38 37 36 35 34 33 32 31 31 30 31 31 31 29 28 28 28 28 31 31 29 28 27 26 28 30 33 34 35 35 35 34 33 33 34 36 39 41 43 45 47 49 52 54 56 59 62 64 66 65 62 56 47 40 34 29 25 22 20 19 20 20 20 20 20 20 20 20 21 21 21 22 22 22 23 24 24 24 25
44 44 46 48 46 41 40 40 38 38 39 37 36 35 33 32 31 30 30 30 30 30 28 28 29 30 29 30 31 33 33 29 27 29 31 33 32 31 31 31 33 34 35 36 37 40 42 44 47 49 51 53 56 58 61 64 65 64 62 56 48 41 35 29 25 22 19 18 18 18 19 19 19 20 20 20 20 20 20 21 21 22 22 22 23 24 24 25
44 43 43 44 42 40 39 39 38 39 40 38 36 35 34 33 33 32 31 31 31 30 27 27 28 30 30 30 30 33 35 32 31 33 34 35 34 32 32 32 33 34 36 38 40 41 44 47 49 51 53 55 58 61 63 64 63 60 55 48 41 35 30 25 22 19 17 17 17 17 18 18 18 20 20 20 20 20 20 20 20 21 21 22 23 23 24 24
43 41 40 40 39 38 37 37 38 39 39 38 35 33 33 33 32 32 32 32 31 28 27 26 26 27 29 30 31 33 35 33 33 33 33 34 33 33 34 35 35 36 38 41 43 45 47 49 51 53 55 58 61 62 63 61 59 54 48 41 36 30 25 22 19 17 16 16 16 16 17 17 18 19 19 19 19 19 19 19 19 20 20 21 22 22 23 23
41 39 37 37 36 36 36 34 36 38 38 38 34 32 32 32 32 31 30 29 27 26 26 25 25 28 32 34 35 37 38 35 32 31 30 31 32 32 34 36 37 38 41 43 45 46 47 49 51 54 57 59 61 61 59 57 53 47 41 35 31 26 22 20 17 15 15 15 14 15 16 17 18 19 18 19 18 18 18 18 18 19 20 21 22 23 23 23
40 38 35 35 33 34 35 32 33 35 35 35 33 31 32 32 31 30 29 27 25 25 26 26 29 34 36 36 36 37 39 38 36 35 33 32 33 33 34 35 37 39 41 44 45 47 49 52 54 56 58 60 59 58 55 51 46 40 35 31 26 23 20 18 15 14 14 13 13 14 15 16 18 18 18 18 18 19 18 18 18 19 21 22 23 24 24 24
38 36 35 34 31 31 32 31 32 33 32 32 32 32 32 31 30 29 29 28 26 28 31 33 36 38 37 34 32 32 35 36 36 36 35 33 34 34 35 36 38 40 42 44 46 49 51 54 56 58 59 58 57 54 50 45 40 35 30 26 23 21 19 17 14 13 13 12 12 13 15 16 17 18 18 18 19 18 18 18 19 20 22 23 24 25 25 25
35 35 35 34 31 31 32 31 31 32 32 31 31 32 31 31 30 30 31 31 32 34 35 36 37 37 35 33 32 31 32 33 33 34 33 33 34 36 37 39 41 42 44 46 48 51 53 55 57 58 58 57 54 49 43 39 35 30 26 23 21 20 18 16 13 13 12 12 12 13 15 16 17 18 18 18 18 18 17 18 19 20 22 24 25 25 26 26
35 33 34 33 32 32 32 31 32 34 34 33 32 31 32 32 32 33 35 36 37 37 35 34 35 35 35 35 36 35 35 34 34 34 34 35 36 38 39 41 43 46 48 50 52 54 56 57 57 57 56 53 48 42 38 34 30 26 23 21 21 19 17 15 13 12 12 12 13 14 16 17 18 18 19 19 18 17 17 17 18 19 22 24 25 26 26 26
36 34 33 34 36 35 34 32 34 37 37 35 33 32 34 35 35 37 38 38 37 36 35 35 36 36 36 38 39 39 39 38 37 37 38 39 40 41 43 44 46 48 51 53 54 56 56 56 56 56 52 46 42 37 33 29 25 23 21 21 20 19 17 14 12 12 12 13 14 15 17 18 19 19 19 19 17 17 17 18 19 20 22 25 25 26 27 27
39 37 33 35 40 39 34 32 32 36 38 36 33 34 38 38 39 39 40 40 38 37 38 37 37 37 37 38 39 40 41 41 40 40 41 42 43 45 46 47 49 51 53 54 55 56 56 56 55 51 45 40 37 33 29 25 23 21 21 21 21 19 16 14 12 12 12 13 15 16 17 18 19 19 20 20 18 18 18 20 21 22 24 25 26 27 27 27
41 40 35 36 41 38 31 30 31 32 36 37 34 35 38 39 40 39 39 40 39 39 39 39 38 38 38 38 38 39 40 40 40 41 42 44 45 47 48 50 52 53 54 56 56 55 56 55 51 44 39 36 33 29 25 23 21 21 21 22 21 19 17 14 12 12 13 14 15 17 18 19 19 20 21 21 20 20 20 22 23 24 25 26 27 28 28 27
43 42 37 37 42 38 30 31 32 29 33 37 36 36 37 38 38 37 36 37 38 38 38 38 38 37 38 38 38 39 40 41 42 43 44 45 47 48 50 52 53 55 55 55 55 56 55 50 42 37 35 32 29 26 23 22 21 20 21 22 22 20 17 14 13 13 14 15 17 18 19 19 19 20 21 21 21 21 22 23 24 25 26 27 28 29 28 27
45 45 41 39 42 41 35 33 32 30 31 33 34 34 35 37 36 35 35 34 36 37 37 38 38 38 39 39 40 40 42 43 44 45 46 47 48 50 51 53 54 55 55 55 55 54 49 42 37 34 32 29 26 24 23 22 21 21 22 23 22 20 18 16 15 15 16 17 18 19 20 20 19 20 21 21 22 22 22 23 24 25 27 28 29 29 28 26
45 45 45 41 42 42 39 35 34 33 32 31 32 32 33 34 34 35 36 35 36 37 38 39 40 40 40 41 42 42 43 44 45 46 47 48 49 51 52 53 54 54 55 55 53 47 41 36 34 31 28 26 24 24 23 22 21 21 23 24 23 21 19 18 18 18 19 20 20 20 21 20 20 20 21 21 21 21 21 22 24 26 28 29 30 29 27 25
43 44 46 44 41 41 39 36 34 34 33 31 31 31 31 32 32 33 35 35 35 36 36 38 39 40 40 41 42 42 43 44 45 46 47 49 50 51 53 53 54 54 55 52 46 40 36 33 31 28 26 25 24 23 23 22 22 22 23 25 24 22 20 20 20 20 21 22 22 22 21 20 19 20 21 21 21 21 21 23 25 27 29 30 30 28 25 23
44 44 46 46 43 40 39 36 34 34 33 32 31 31 32 33 33 33 34 34 35 35 35 36 38 38 39 40 41 42 43 44 46 47 48 50 51 53 53 53 54 54 50 44 39 36 33 30 28 25 24 23 23 23 23 23 23 23 24 25 25 23 22 22 22 22 23 23 23 23 21 19 19 20 21 21 21 22 23 25 27 28 29 30 29 25 22 21
45 44 45 47 47 44 40 39 38 36 35 33 32 32 33 34 35 35 36 36 37 38 39 39 39 40 41 42 43 44 45 47 48 49 50 51 52 52 52 53 52 47 42 38 36 33 31 28 25 23 23 22 22 23 23 24 25 25 25 25 25 25 24 24 24 24 24 25 24 22 21 19 18 19 21 21 22 23 24 26 28 29 29 29 26 22 20 19
47 45 45 46 46 45 43 42 41 38 36 35 35 36 36 35 36 38 37 37 38 39 40 41 42 43 44 45 47 48 49 49 50 51 51 51 51 52 52 50 45 40 37 36 34 31 28 25 23 22 22 22 22 23 25 25 26 25 25 24 24 25 25 25 25 25 25 24 23 21 20 19 19 20 21 21 22 24 25 27 28 28 28 26 23 20 19 19
50 47 46 46 44 44 44 43 42 40 37 36 37 38 37 35 36 37 36 36 37 38 39 41 42 44 46 47 48 49 49 50 49 49 49 50 50 50 48 43 38 37 36 34 31 28 25 23 22 22 22 22 23 24 25 26 25 25 24 23 23 23 24 24 25 25 24 23 21 20 18 18 19 20 21 21 23 24 25 26 27 26 25 22 19 18 19 20
49 48 47 48 47 45 45 44 43 42 41 38 38 39 37 37 37 37 37 38 38 39 39 41 42 43 44 45 46 47 47 47 47 47 48 49 48 46 41 38 37 36 33 31 28 26 23 22 22 22 22 22 23 23 24 24 23 23 23 23 23 23 23 24 24 23 23 21 20 19 19 19 19 20 21 21 23 24 25 26 25 23 21 18 17 17 19 21
46 48 48 47 47 46 46 47 44 43 42 40 38 38 38 39 40 40 40 41 41 41 40 41 41 41 42 44 45 45 45 45 45 46 47 46 44 41 38 37 36 34 31 28 26 23 22 22 22 22 23 23 22 22 22 22 22 22 23 23 23 22 22 22 22 22 21 20 20 19 19 20 20 20 20 21 22 24 25 24 22 20 18 17 16 17 19 20
45 46 46 45 45 45 46 47 46 43 41 40 39 39 40 40 40 40 41 41 41 41 41 41 42 43 44 44 44 44 44 44 44 45 44 42 40 38 37 37 35 31 29 26 24 22 22 22 23 23 23 23 21 21 22 22 23 23 23 22 22 21 21 21 21 21 21 21 20 19 19 19 20 20 21 21 22 23 23 22 20 19 18 17 17 19 20 21
46 44 44 44 44 44 43 43 42 40 39 40 40 41 42 42 41 41 41 41 41 41 42 44 45 46 46 45 45 44 43 43 43 42 41 40 39 38 37 36 33 29 27 25 23 22 22 23 24 24 24 23 21 21 22 23 23 23 22 21 20 20 20 20 20 21 21 22 20 19 18 18 19 20 21 21 22 22 21 21 20 19 19 19 19 20 21 22
50 46 44 43 42 43 43 41 39 38 39 40 41 43 44 44 43 43 42 42 43 43 44 44 45 45 45 44 43 43 42 41 40 40 39 39 39 38 37 34 30 27 25 23 23 22 23 24 24 24 24 22 22 22 22 23 23 23 22 21 20 20 20 20 20 20 20 21 20 19 18 18 19 20 20 21 22 21 19 20 21 20 20 20 21 22 23 23
52 51 49 45 43 43 43 41 40 39 39 41 43 44 45 45 45 44 45 45 45 45 44 43 42 42 42 42 41 40 40 39 39 39 39 39 39 38 35 31 28 25 24 23 23 23 24 24 24 24 23 22 21 21 22 22 22 22 21 21 20 20 20 20 20 20 19 20 20 20 20 20 20 20 20 21 22 21 20 19 20 22 22 22 23 24 25 26
48 52 52 49 46 45 45 43 41 40 41 43 44 46 47 47 47 46 45 45 45 44 43 41 40 40 40 39 39 39 38 38 39 39 39 39 38 36 32 29 26 24 23 23 23 24 25 24 24 23 22 22 22 22 22 22 22 22 21 20 20 20 20 20 20 20 20 19 20 21 22 22 21 20 21 22 23 23 22 20 21 22 23 24 25 26 27 28
42 45 48 48 46 45 45 45 45 44 44 46 46 47 47 46 46 46 44 43 42 41 40 40 39 39 38 38 38 38 38 38 39 39 40 39 37 34 30 27 25 23 23 23 24 25 25 25 24 23 22 23 23 23 23 22 22 22 21 21 21 21 21 21 21 21 21 21 21 21 22 23 23 23 23 24 25 25 24 23 22 23 24 25 26 27 28 29
40 42 43 45 45 45 44 45 47 48 49 49 48 48 48 46 45 45 44 42 41 40 40 39 38 38 38 38 39 39 38 38 38 39 39 37 35 32 28 26 24 23 23 24 25 25 25 25 24 23 23 24 24 24 23 23 22 22 22 22 22 22 22 22 22 22 22 23 24 24 24 23 22 23 25 26 26 26 27 27 25 25 26 26 27 28 29 30
39 41 43 44 45 46 46 46 47 48 50 50 49 49 48 47 47 46 45 44 42 41 41 40 39 39 39 39 40 39 39 38 39 39 38 37 34 30 27 25 24 23 24 24 25 26 26 25 25 25 25 25 26 25 24 24 23 23 23 23 23 24 24 24 23 24 24 25 27 28 28 25 24 24 26 27 27 26 28 29 28 27 28 28 29 30 30 31
40 41 43 44 45 47 48 49 49 49 50 51 50 50 50 49 49 49 48 47 45 44 43 42 41 40 40 40 40 40 40 40 40 39 38 36 33 29 27 26 25 24 24 25 25 26 27 26 26 26 26 27 27 26 26 25 24 24 24 24 24 25 25 25 26 26 26 27 29 31 32 30 27 27 28 28 27 26 27 29 28 29 30 30 31 31 32 33
43 44 45 45 46 46 47 48 49 50 51 51 51 51 51 51 50 50 49 48 46 45 44 43 42 41 41 40 40 40 41 41 41 40 38 35 32 29 28 26 26 25 25 25 26 27 27 28 28 28 28 28 28 28 27 26 26 25 25 25 26 26 27 27 28 28 29 30 30 33 34 32 30 32 32 30 28 27 28 29 29 30 31 32 33 34 35 36
45 46 48 48 48 48 48 49 49 50 50 51 51 51 51 51 51 50 49 48 48 47 45 44 43 42 42 42 42 42 42 42 41 40 37 35 32 30 29 28 27 27 26 26 26 27 28 28 29 30 30 30 30 30 29 29 28 28 27 27 28 28 29 29 30 31 31 32 32 33 36 34 32 34 36 35 31 30 31 32 32 32 33 33 35 36 37 39
47 48 49 50 51 51 50 50 51 51 51 51 51 51 51 51 51 51 50 50 49 48 47 46 45 45 44 44 44 44 44 43 41 39 36 34 32 31 30 29 28 28 27 27 27 28 28 29 30 31 31 31 31 31 31 31 31 30 30 30 31 31 31 31 32 33 33 34 33 34 38 37 33 34 38 38 35 34 35 36 36 36 36 36 38 39 40 41
51 50 51 52 53 54 54 54 54 53 53 53 54 53 53 53 53 53 53 52 51 51 50 49 48 47 47 47 46 46 45 43 41 38 35 33 33 32 31 30 30 29 28 28 28 28 29 29 31 31 32 32 32 32 32 32 32 33 33 33 34 34 34 33 34 35 36 36 34 35 40 40 36 36 39 39 37 37 38 39 40 40 39 39 40 42 42 43
54 54 54 55 56 57 57 58 58 57 57 57 57 57 57 57 57 57 57 56 55 54 53 52 51 51 50 50 48 47 44 41 39 37 35 33 33 33 32 31 31 31 30 29 29 29 29 30 31 32 33 33 33 33 33 33 34 34 35 35 35 36 36 36 36 37 37 37 36 38 42 42 40 39 41 41 39 39 42 42 42 42 42 42 43 44 45 45
57 57 57 58 58 59 60 60 60 61 61 61 61 61 61 61 61 61 60 60 59 58 57 57 56 54 53 51 48 45 42 39 37 36 34 34 34 33 33 32 32 32 31 30 30 30 30 31 31 32 33 34 34 35 34 35 35 36 37 37 37 38 38 38 39 39 39 38 39 41 43 43 45 45 42 41 41 41 44 45 45 45 45 45 46 47 47 47
60 60 60 60 60 61 62 62 62 62 63 63 63 63 63 63 63 63 63 63 62 61 60 59 57 55 52 48 45 42 39 37 36 35 34 34 34 34 33 33 33 32 32 31 31 31 31 32 33 33 34 35 35 36 36 36 37 37 38 39 39 39 40 41 41 42 41 39 41 46 45 43 49 52 46 43 43 43 46 48 48 48 47 47 48 48 48 48
61 62 62 62 62 62 63 63 63 64 64 64 64 64 64 65 65 65 64 64 62 61 59 57 54 51 47 44 41 39 37 36 35 35 35 35 34 34 34 34 33 32 32 32 32 32 33 34 34 34 36 36 37 37 38 37 38 39 40 41 41 41 42 43 44 44 44 42 43 48 48 45 50 55 51 48 47 47 48 50 51 51 50 50 50 50 50 50
61 62 62 62 63 63 63 64 64 64 65 65 65 64 64 63 62 61 59 57 55 53 51 49 47 44 42 40 38 37 36 35 35 35 35 35 35 35 34 34 34 33 33 33 33 33 34 35 35 35 36 38 38 39 39 39 40 41 42 44 45 44 44 44 46 47 47 45 46 49 50 50 53 55 53 53 52 51 51 52 52 52 52 52 52 51 51 52
53 54 55 56 57 57 57 58 58 58 58 58 58 56 55 53 51 50 48 46 44 43 42 41 39 38 38 37 36 35 34 35 36 36 35 35 35 35 35 35 35 34 34 34 35 35 35 36 36 36 36 38 39 40 40 40 41 42 44 47 48 47 46 47 49 50 50 48 49 51 51 54 56 55 54 55 55 54 53 53 53 53 53 53 54 53 53 54
41 42 43 44 45 46 46 46 46 46 46 46 45 44 43 41 40 39 38 37 36 36 36 35 34 35 35 35 34 34 34 34 36 36 35 35 36 36 36 36 36 36 36 36 37 37 37 37 38 37 37 38 40 40 40 40 40 41 44 48 49 48 49 50 51 52 52 51 52 53 53 55 58 57 56 57 58 57 56 56 55 55 54 55 56 56 57 58
29 30 31 32 33 34 34 35 35 34 34 34 33 33 32 32 31 31 31 31 32 32 32 32 32 33 34 33 33 33 34 35 36 36 36 36 37 37 37 37 38 38 38 38 39 39 39 39 39 39 37 39 41 41 41 40 39 39 43 47 48 49 50 51 52 53 53 53 53 54 55 57 58 58 58 60 60 59 59 59 58 58 58 58 58 59 60 62
21 22 23 23 24 24 25 25 25 25 25 25 25 25 25 26 26 27 27 28 29 29 30 30 31 32 33 33 33 33 34 35 36 36 37 38 38 38 38 39 39 40 41 41 41 41 41 41 41 40 39 40 42 43 43 41 39 40 45 48 49 50 51 52 53 55 55 55 54 56 58 59 60 59 60 61 62 61 61 61 61 61 61 62 62 63 65 66
Wind_Direction
151 150 151 154 160 166 170 172 173 174 175 177 180 183 184 184 184 184 182 180 180 180 182 183 184 186 188 190 196 203 209 214 220 227 231 235 241 246 251 255 255 255 253 253 254 257 267 276 280 281 280 280 282 282 284 287 291 295 298 300 302 306 310 313 315 318 320 321 322 321 322 324 327 328 328 328 328 330 333 335 336 337 338 339 339 338 338 337
150 150 153 159 164 169 172 172 173 174 175 177 179 182 183 182 182 181 180 179 180 181 183 184 186 189 191 195 199 205 212 217 222 227 232 237 243 247 251 247 241 243 244 250 259 268 277 279 278 279 278 278 279 282 287 290 294 298 301 303 306 309 312 315 317 319 321 321 321 320 322 326 327 327 327 328 330 332 334 336 338 340 341 342 342 342 340 339
150 152 157 163 167 171 173 172 172 173 174 176 177 179 180 180 180 179 178 179 178 179 182 182 185 190 192 195 200 205 212 218 221 226 235 239 238 237 238 234 234 241 248 259 267 273 278 277 276 276 276 277 280 286 291 294 297 300 303 307 309 312 314 316 319 320 321 320 319 321 324 326 326 327 328 329 331 333 335 337 340 342 344 345 346 346 345 344
155 158 161 165 169 173 173 172 172 173 174 173 173 176 178 178 178 178 179 179 178 177 179 179 182 189 189 188 198 209 216 221 222 226 230 226 224 225 230 237 243 247 253 262 269 273 275 275 274 274 276 280 285 291 295 298 300 302 305 309 312 314 315 318 320 320 320 319 319 321 323 325 325 327 329 330 332 334 336 340 343 345 347 350 350 350 350 351
161 163 164 166 170 173 174 173 173 174 172 169 169 173 175 176 176 177 179 181 180 179 179 180 184 190 189 185 194 207 214 217 215 215 218 220 226 231 238 248 252 253 258 265 268 269 269 270 272 276 282 288 292 295 298 301 303 306 308 311 313 314 317 319 320 319 318 318 319 320 322 324 326 328 329 331 333 335 339 343 346 349 351 354 355 356 357 357
163 164 165 167 170 172 174 174 174 173 169 165 166 168 171 173 175 176 179 181 182 181 181 185 188 192 196 196 200 207 211 212 212 215 222 232 242 245 248 255 259 258 260 261 261 262 265 271 278 284 289 292 295 297 300 303 305 308 310 311 313 315 318 319 319 318 317 317 317 318 321 325 327 328 330 332 334 337 342 346 349 351 354 357 359 2 3 4
162 163 165 168 170 172 174 176 175 171 165 164 166 166 167 169 172 175 179 180 182 183 184 187 190 192 199 208 213 215 215 218 223 227 234 242 248 251 253 256 257 255 254 256 258 263 272 279 285 289 292 294 296 298 301 304 307 309 310 312 315 317 318 318 317 317 316 315 315 317 323 327 328 329 331 333 336 340 344 347 350 353 355 358 1 5 8 10
162 164 165 167 170 172 174 176 173 168 164 165 166 167 166 166 170 174 177 180 183 185 188 190 192 194 201 211 217 221 225 231 234 238 241 243 246 249 250 250 249 250 255 262 268 272 278 284 288 291 293 295 297 300 303 305 308 309 311 314 316 317 318 317 316 315 313 311 313 319 325 327 328 330 332 334 338 343 346 348 351 353 356 359 2 5 9 13
162 164 166 168 170 171 172 173 169 166 163 163 165 167 167 167 169 173 177 181 184 187 190 192 194 196 203 213 220 226 231 233 235 239 241 239 238 240 240 242 246 254 263 268 273 276 280 285 289 292 295 298 300 303 305 307 309 311 313 315 317 317 316 315 314 311 309 308 314 322 326 328 329 331 333 336 340 344 346 349 352 355 358 0 3 5 8 12
164 165 167 170 171 169 168 169 167 165 165 164 165 165 165 166 169 173 178 182 185 190 194 196 196 197 202 211 220 228 229 229 232 234 235 234 234 238 243 247 253 260 267 272 277 281 285 288 291 294 297 300 303 305 307 308 310 312 314 315 316 315 313 312 310 307 305 309 318 324 327 328 331 333 335 338 342 345 347 350 353 356 359 2 4 6 8 10
168 167 168 171 172 170 167 167 166 167 169 169 168 166 166 168 171 175 179 183 188 193 197 201 205 207 209 212 219 228 229 227 229 230 231 233 238 246 253 258 262 267 272 276 281 285 288 290 292 295 298 301 304 306 307 309 311 313 314 315 313 311 311 309 305 301 303 312 321 325 326 328 332 334 337 341 344 346 347 350 353 356 360 2 5 7 8 10
170 170 170 173 174 174 172 170 169 171 173 174 173 171 170 173 177 180 183 186 191 195 199 206 212 217 220 220 223 230 229 225 226 228 231 236 243 250 256 263 269 273 276 279 282 285 288 290 293 297 300 303 305 306 308 310 312 313 313 312 310 308 307 304 299 297 305 315 321 324 325 327 332 335 339 343 346 347 347 349 352 356 0 3 5 7 8 9
171 172 173 174 176 178 179 177 175 176 177 178 179 179 177 179 183 186 189 192 197 201 205 210 215 220 224 224 225 227 228 230 232 236 241 246 252 257 261 267 272 275 277 279 281 285 289 292 296 300 302 304 305 308 310 311 312 312 311 308 306 305 302 297 292 296 307 316 320 321 323 327 331 335 339 343 346 347 346 348 352 357 1 3 4 5 6 7
172 173 173 173 175 179 182 182 181 181 182 183 183 186 187 188 189 192 196 200 206 211 214 217 216 218 221 220 220 222 227 233 239 244 250 254 258 262 265 269 272 275 277 280 283 287 291 295 299 302 304 305 307 310 311 311 310 309 306 303 302 300 295 289 287 296 309 314 317 317 320 325 329 333 338 341 344 345 345 349 353 357 1 2 3 3 4 4
172 175 176 176 176 177 179 181 181 183 185 186 188 191 193 194 195 198 203 207 212 215 216 216 215 215 217 217 218 221 226 232 238 244 251 255 260 265 270 273 276 279 282 285 287 290 293 297 300 303 305 307 310 311 309 308 306 304 301 300 298 293 287 281 283 297 307 311 312 313 317 322 327 331 335 339 341 342 345 349 353 357 360 0 0 0 1 2
171 176 178 179 179 178 179 178 178 183 185 185 188 191 193 195 197 201 205 209 211 212 211 212 213 214 217 220 224 228 231 235 239 245 253 260 265 269 273 277 280 283 286 289 292 294 297 300 302 305 308 310 310 308 306 303 301 299 297 296 292 285 278 276 283 297 307 309 308 308 313 319 324 328 332 336 338 340 344 348 351 354 356 357 357 357 359 360
169 172 175 178 179 181 182 180 179 181 181 182 187 191 194 197 199 202 206 208 210 211 212 214 216 219 224 228 231 235 238 242 247 253 260 267 272 276 278 281 284 286 288 291 293 297 299 302 304 307 309 309 307 304 301 298 296 294 292 290 284 277 272 273 284 299 306 307 306 307 312 318 323 327 331 334 335 337 340 344 347 349 352 353 354 354 356 356
171 170 171 174 175 177 178 176 180 182 181 184 189 192 194 196 199 203 208 209 211 215 219 221 223 226 230 232 236 240 243 249 255 259 266 272 276 280 282 285 287 288 290 292 295 298 301 304 307 309 308 305 302 299 295 292 291 290 288 283 277 270 267 272 287 301 306 307 307 309 312 317 321 326 331 332 332 333 336 340 343 345 348 349 351 352 352 352
177 173 168 169 169 168 169 174 183 188 185 186 192 196 196 197 200 205 209 211 214 218 222 226 229 231 234 236 239 243 247 253 260 265 270 274 277 281 284 287 289 290 292 295 297 300 303 307 308 307 303 299 297 294 289 287 286 285 281 276 270 264 263 271 287 301 308 308 309 311 313 315 319 325 329 329 330 332 334 337 340 342 344 346 348 349 349 350
180 178 172 169 167 164 169 182 191 196 193 191 194 198 200 202 205 209 212 214 219 223 226 230 235 238 241 244 248 251 255 260 265 270 273 275 278 281 284 287 289 291 293 296 299 302 306 307 305 301 297 294 291 287 284 282 281 279 275 269 263 260 261 270 285 300 308 309 310 310 309 311 315 322 325 326 329 332 334 336 337 339 340 343 346 347 347 348
183 184 180 174 171 168 174 186 192 198 200 198 198 199 201 205 208 213 216 220 226 229 232 236 241 245 248 252 256 259 262 266 270 273 275 277 279 282 284 287 289 292 295 298 302 305 306 304 300 296 293 289 284 281 279 277 276 274 269 263 259 257 260 268 280 293 303 307 309 309 307 307 311 318 323 325 328 331 333 333 334 336 338 342 345 345 345 346
185 188 187 181 177 177 179 185 191 194 197 202 206 206 208 210 215 221 224 231 235 236 239 244 249 252 254 258 261 263 265 269 273 275 277 279 281 283 286 288 291 294 297 301 304 305 302 298 295 293 287 282 278 276 274 273 272 270 265 259 255 256 260 268 277 287 297 305 308 309 306 305 307 314 321 325 326 327 328 330 332 335 338 342 343 343 344 345
186 190 192 188 185 185 186 190 193 193 193 200 207 212 215 217 223 227 230 238 242 242 244 249 253 256 258 261 264 266 268 271 274 276 278 280 283 285 287 291 294 297 300 302 303 301 297 295 293 287 280 275 273 271 270 268 268 266 262 256 253 256 261 268 276 284 293 301 306 308 306 303 303 310 319 323 325 325 326 328 332 335 338 340 341 341 342 345
188 192 195 195 194 194 196 198 199 198 199 203 209 216 221 225 230 231 233 240 242 244 246 250 254 258 261 263 266 268 270 272 274 277 279 282 284 287 290 293 296 299 301 301 299 296 295 293 288 280 273 270 268 267 265 265 265 264 260 254 251 254 261 269 276 283 292 299 304 308 307 302 299 307 317 323 324 325 327 330 333 335 337 338 338 339 341 344
193 195 197 200 202 203 205 207 208 209 211 214 220 225 229 233 237 239 241 243 244 247 250 252 256 259 263 265 266 268 270 273 275 278 281 284 287 290 292 295 298 300 300 298 296 295 294 289 281 273 268 266 264 262 262 263 264 263 259 254 250 253 261 268 276 283 291 298 304 307 306 301 298 305 316 321 324 327 330 332 333 334 334 335 335 337 341 346
199 200 201 203 206 209 212 215 217 220 222 227 231 234 236 238 239 242 244 246 248 251 254 256 259 261 263 265 267 269 272 275 278 281 284 287 289 292 294 297 298 298 297 295 295 294 290 283 274 268 264 262 261 260 261 263 263 262 258 254 252 254 260 268 276 283 290 297 302 304 302 299 299 305 315 321 324 328 330 331 330 331 332 332 334 337 341 345
206 207 207 207 209 212 216 219 222 225 228 232 236 239 240 241 242 243 245 247 249 252 255 258 260 262 264 267 269 272 275 277 280 283 286 288 290 293 296 297 297 296 296 296 295 291 285 275 268 264 261 259 259 260 262 262 261 259 257 256 254 255 260 267 275 281 288 295 299 300 299 299 302 308 316 321 324 326 327 327 327 329 330 331 332 336 337 340
211 213 215 213 214 217 219 222 224 227 230 233 236 237 239 241 243 244 246 249 252 254 257 260 262 265 267 269 271 274 276 279 282 284 287 289 292 295 296 296 296 297 297 295 291 286 277 269 264 261 258 257 259 261 263 262 259 255 255 255 255 257 262 268 274 280 287 292 295 297 299 301 305 310 316 320 322 322 322 323 325 327 328 329 332 333 333 334
215 218 220 219 219 222 223 225 227 228 232 236 237 237 239 243 244 246 249 250 253 256 258 260 263 265 267 269 272 274 277 279 282 285 288 291 293 294 295 295 297 297 295 291 285 278 269 264 262 258 256 258 260 262 262 261 258 254 253 254 257 260 264 269 275 280 285 288 292 297 301 303 306 311 314 317 318 318 319 321 324 325 326 328 328 327 326 329
218 220 222 223 224 227 228 229 231 232 234 237 240 239 241 244 244 246 249 250 252 254 256 258 261 263 266 269 271 273 276 279 282 286 289 291 292 293 295 296 297 295 291 285 277 269 263 261 259 256 256 257 259 261 260 259 258 256 256 257 260 264 267 271 276 280 282 286 291 296 299 302 305 309 311 314 316 316 318 321 323 323 323 323 323 321 322 324
218 220 222 224 225 227 229 230 232 234 233 235 237 238 239 240 240 243 247 249 250 253 256 258 261 263 266 269 271 273 276 279 283 287 289 290 291 293 295 296 295 291 284 277 269 263 260 258 257 255 255 256 257 258 258 259 259 259 260 261 263 266 269 273 275 278 280 285 290 293 297 301 304 308 309 311 314 315 316 319 321 320 318 319 319 319 320 321
216 217 219 220 219 220 220 221 225 227 227 230 233 235 237 239 240 243 245 248 250 253 256 259 262 264 265 268 271 273 277 280 284 287 288 290 291 293 294 294 290 284 275 269 263 259 257 255 255 254 255 255 254 255 257 258 259 260 261 262 264 267 269 271 273 276 280 285 289 292 295 299 302 304 305 309 312 314 316 318 319 317 315 314 315 317 319 320
216 217 217 215 215 215 214 212 215 219 224 227 230 233 236 239 242 244 246 249 252 254 256 258 260 262 264 267 270 274 277 281 284 286 288 290 292 293 292 290 284 275 267 262 259 257 255 252 252 254 255 254 253 254 256 257 258 259 260 261 263 266 267 270 272 275 279 284 288 291 294 296 298 298 300 306 310 312 314 314 314 313 312 311 311 313 315 316
218 218 219 218 217 218 217 216 216 220 226 229 231 235 237 240 243 244 246 249 252 253 254 256 258 261 264 268 271 275 278 281 284 287 289 291 292 291 289 284 276 267 261 258 257 255 252 249 251 254 255 254 254 255 256 257 257 257 259 260 262 265 267 270 272 275 279 283 287 291 293 295 294 292 294 301 307 310 311 311 310 309 310 311 310 311 312 313
219 220 222 223 224 225 225 226 227 227 231 233 234 237 238 240 242 244 244 246 248 250 253 255 259 262 266 269 273 276 280 283 286 288 290 291 290 288 285 277 269 262 258 256 255 252 248 247 250 253 255 256 256 256 257 258 258 259 260 263 265 267 270 272 274 276 278 280 283 288 292 293 292 290 292 298 302 305 307 307 307 307 307 307 307 307 308 308
222 223 225 226 228 230 230 232 234 234 235 236 236 237 238 238 240 241 242 243 246 249 252 256 260 263 267 271 274 278 281 285 288 290 291 290 287 284 279 270 263 258 256 255 252 247 244 246 250 253 255 256 257 259 260 260 261 262 264 266 268 270 272 273 275 277 279 280 281 284 288 290 290 290 292 295 297 299 301 302 304 304 303 302 302 303 304 304
223 225 227 227 229 230 230 232 234 235 236 238 237 237 237 238 240 241 242 244 247 250 254 257 261 265 268 272 275 278 281 285 289 291 289 287 284 279 272 264 259 256 255 252 248 243 242 246 251 253 255 257 259 260 261 262 263 264 266 267 269 271 272 273 275 276 278 280 282 283 283 283 284 286 289 291 293 295 297 299 301 301 300 301 303 304 306 307
222 223 224 225 226 228 228 230 232 233 235 236 236 236 237 239 241 243 245 247 249 253 256 260 263 266 269 272 275 278 281 285 288 289 287 284 279 273 265 260 257 255 253 249 245 242 242 246 251 253 255 258 260 261 262 263 264 266 267 269 270 271 272 273 274 275 276 278 281 283 282 280 278 280 283 286 289 292 293 295 298 300 300 301 303 305 306 307
219 220 221 223 224 225 227 229 231 232 234 236 237 238 240 241 243 245 247 249 251 255 258 261 264 267 270 272 275 278 281 283 285 286 284 279 273 266 260 257 256 254 251 247 244 243 243 246 250 253 256 258 260 261 262 264 266 267 269 271 271 272 273 273 273 273 274 276 279 282 282 282 281 280 280 283 287 288 288 290 295 298 300 302 304 305 305 306
217 219 221 222 224 225 227 228 231 233 235 237 238 240 241 243 244 246 247 250 252 256 260 263 265 268 270 273 276 278 280 281 282 282 279 274 266 260 257 255 254 252 250 248 246 245 245 247 250 253 256 258 260 262 263 265 267 269 271 272 273 273 273 273 273 273 274 275 278 280 280 281 283 284 283 284 287 288 287 289 292 295 298 301 303 305 306 306
218 220 222 223 225 226 228 230 232 235 236 238 240 241 242 243 245 247 249 252 255 258 262 265 267 269 271 274 276 277 278 279 279 278 274 267 260 256 255 254 252 251 251 250 249 248 247 248 250 253 256 259 260 262 264 266 267 269 272 273 274 275 275 275 274 274 274 275 276 278 279 280 282 284 285 286 288 289 290 290 292 294 297 300 302 304 305 306
220 222 224 226 227 229 230 233 235 236 238 239 241 242 243 245 247 249 251 254 257 260 263 266 268 270 271 273 275 276 277 276 275 272 268 260 254 253 254 253 252 251 251 252 252 250 249 250 251 254 256 259 260 262 264 266 268 269 271 273 274 275 275 275 275 275 274 274 276 277 277 278 280 281 282 285 288 290 291 292 293 295 297 300 302 303 304 305
223 225 227 228 230 231 233 236 237 238 240 241 243 244 246 248 250 252 254 256 259 261 264 267 269 270 271 273 274 275 274 272 269 265 260 254 251 252 253 253 252 252 253 254 254 253 252 252 253 255 256 259 261 263 264 266 268 269 270 272 274 275 275 275 275 276 275 276 277 276 276 278 279 278 279 282 286 289 291 291 293 295 296 299 301 302 303 303
227 228 230 231 233 234 236 238 240 242 243 245 246 248 249 251 253 255 257 259 260 263 265 267 269 270 271 272 272 272 270 266 261 257 252 249 250 251 252 253 253 253 254 255 255 255 255 255 255 256 258 259 261 263 265 266 268 269 270 272 273 274 275 275 275 275 276 277 278 276 276 279 279 277 279 282 285 288 290 291 292 294 296 298 300 301 301 301
231 232 232 233 235 236 239 241 243 245 246 248 249 251 252 254 255 257 259 260 262 264 265 267 268 269 270 270 269 266 262 257 252 249 247 248 249 250 252 253 253 253 255 256 257 258 258 258 258 259 260 261 262 264 266 267 268 270 271 272 272 274 275 275 275 275 276 277 278 275 275 280 280 277 277 281 283 285 288 289 291 292 295 297 298 299 299 300
235 236 236 237 238 239 241 243 245 247 249 250 251 253 254 256 257 258 260 262 263 264 265 266 267 267 267 265 262 257 252 247 244 244 245 247 249 250 251 253 253 254 255 257 258 259 260 260 260 260 261 262 263 264 265 267 269 270 271 271 271 272 273 274 274 275 275 276 277 277 277 281 283 282 280 281 282 283 285 288 290 291 293 295 296 297 298 299
239 240 241 242 243 244 245 247 248 250 251 252 254 256 257 258 260 261 262 263 264 264 264 264 263 262 260 257 252 247 242 239 239 243 246 247 248 250 251 252 253 255 256 258 259 260 261 261 261 261 262 263 264 265 266 267 269 270 271 271 271 271 272 274 274 274 275 275 276 278 280 281 281 283 285 285 285 284 286 287 289 292 294 295 295 297 298 299
245 245 246 247 249 250 250 251 252 254 255 256 257 259 260 261 261 262 262 262 262 261 260 259 257 255 251 246 242 237 234 235 240 244 246 247 248 250 251 252 253 255 256 258 260 261 262 263 262 262 263 264 265 266 267 268 269 270 271 271 271 272 272 273 273 273 274 275 274 276 280 280 279 281 284 286 286 286 287 287 289 291 293 294 295 295 296 296
246 247 248 249 250 251 252 253 254 255 256 257 258 259 259 259 259 259 259 258 256 255 253 251 248 244 240 237 233 230 231 237 242 245 246 247 249 250 251 253 254 255 257 258 260 261 262 263 264 264 264 265 265 266 268 269 270 271 272 271 271 273 274 273 273 274 275 275 275 276 278 280 280 282 284 285 286 286 287 288 289 291 292 293 294 294 295 295
244 246 247 248 248 249 251 252 253 253 254 255 255 256 255 255 254 254 253 252 250 248 246 243 239 235 232 229 227 229 234 240 244 245 246 248 250 250 251 253 255 256 258 258 260 261 261 262 264 265 265 266 267 267 268 269 271 272 273 272 273 274 275 274 274 275 276 276 277 278 279 280 282 284 285 286 286 287 288 289 290 291 292 292 293 294 295 296
242 243 244 245 246 247 247 248 248 249 250 250 250 250 250 249 249 248 247 246 243 241 238 235 230 227 226 225 227 234 240 243 246 247 248 249 251 252 252 254 256 257 258 259 260 261 262 263 264 265 266 268 269 269 269 269 271 272 271 273 275 275 275 276 277 277 277 277 279 279 280 280 282 284 285 286 287 288 289 290 291 291 292 292 293 294 295 296
236 237 238 239 240 241 241 242 243 244 244 245 246 246 245 245 245 243 242 240 237 235 231 228 225 224 225 228 233 240 245 247 248 249 250 251 252 253 254 255 257 258 259 260 261 262 263 264 265 266 267 268 270 271 271 272 273 272 272 274 276 276 276 277 278 278 278 278 279 279 280 280 281 282 284 285 286 287 288 289 290 291 292 293 293 294 294 295
Height
10696 10701 10707 10712 10717 10721 10725 10730 10735 10740 10745 10751 10756 10760 10765 10769 10772 10776 10780 10785 10789 10792 10795 10798 10801 10804 10806 10810 10813 10816 10819 10822 10824 10826 10828 10829 10832 10833 10835 10836 10837 10837 10838 10837 10837 10837 10836 10835 10834 10833 10832 10831 10829 10828 10826 10824 10822 10820 10819 10817 10816 10814 10812 10810 10807 10802 10798 10793 10789 10786 10783 10781 10779 10777 10775 10773 10771 10769 10766 10764 10761 10758 10756 10753 10750 10747 10744 10741
10700 10706 10711 10714 10717 10722 10726 10732 10737 10742 10747 10752 10757 10761 10766 10770 10773 10777 10782 10786 10790 10792 10795 10798 10801 10804 10807 10810 10813 10816 10819 10821 10824 10826 10827 10829 10831 10833 10834 10835 10836 10836 10836 10835 10835 10834 10834 10833 10832 10831 10830 10828 10827 10825 10823 10821 10819 10818 10816 10815 10813 10812 10810 10807 10803 10799 10794 10790 10787 10784 10782 10780 10778 10776 10775 10773 10770 10768 10765 10763 10760 10758 10755 10752 10750 10747 10744 10741
10704 10708 10712 10715 10719 10723 10728 10734 10739 10744 10749 10753 10758 10763 10767 10771 10775 10779 10783 10787 10790 10793 10795 10798 10801 10804 10807 10810 10813 10816 10819 10821 10823 10825 10827 10829 10831 10832 10833 10833 10833 10834 10833 10833 10832 10832 10832 10831 10830 10829 10827 10826 10824 10822 10820 10819 10817 10815 10813 10812 10811 10809 10807 10803 10799 10795 10791 10787 10784 10782 10781 10779 10778 10776 10774 10772 10770 10767 10765 10762 10760 10757 10755 10752 10749 10747 10744 10741
10704 10707 10711 10716 10721 10726 10731 10736 10742 10746 10751 10755 10760 10765 10768 10772 10776 10780 10784 10787 10790 10793 10796 10798 10801 10804 10807 10810 10813 10816 10818 10821 10823 10825 10827 10828 10829 10830 10831 10831 10831 10831 10831 10831 10830 10830 10830 10829 10827 10826 10824 10823 10821 10819 10818 10816 10814 10812 10811 10810 10808 10806 10803 10800 10796 10792 10788 10785 10783 10781 10780 10778 10777 10775 10773 10771 10769 10767 10764 10762 10759 10757 10754 10752 10749 10746 10743 10740
10705 10708 10713 10718 10724 10730 10735 10740 10745 10749 10754 10758 10762 10766 10770 10773 10777 10781 10785 10788 10791 10793 10796 10798 10801 10804 10807 10810 10813 10816 10818 10820 10822 10823 10825 10826 10827 10828 10829 10829 10829 10829 10830 10829 10829 10828 10827 10826 10825 10823 10822 10820 10818 10817 10815 10813 10811 10809 10808 10807 10806 10803 10800 10796 10793 10789 10786 10783 10781 10780 10779 10778 10776 10774 10772 10770 10768 10766 10764 10761 10759 10757 10754 10752 10749 10746 10743 10740
10710 10714 10718 10723 10728 10734 10740 10744 10748 10752 10756 10760 10764 10768 10771 10775 10779 10782 10785 10788 10791 10793 10795 10798 10801 10804 10807 10810 10813 10816 10818 10820 10821 10822 10823 10824 10825 10826 10827 10827 10828 10828 10828 10827 10826 10826 10825 10823 10822 10820 10819 10817 10815 10813 10812 10810 10808 10807 10805 10805 10803 10800 10796 10793 10789 10786 10783 10782 10780 10779 10778 10777 10775 10774 10772 10770 10768 10766 10763 10761 10759 10757 10754 10752 10749 10746 10743 10741
10716 10720 10724 10728 10733 10739 10744 10748 10751 10755 10759 10762 10766 10769 10773 10776 10779 10782 10785 10788 10790 10793 10795 10798 10801 10804 10807 10810 10813 10815 10817 10819 10820 10821 10822 10823 10824 10825 10826 10826 10826 10825 10825 10824 10823 10822 10822 10820 10819 10817 10816 10814 10812 10811 10809 10807 10805 10804 10803 10802 10799 10796 10793 10790 10787 10784 10782 10781 10779 10778 10777 10776 10775 10773 10771 10769 10767 10765 10763 10761 10759 10757 10754 10752 10749 10746 10744 10741
10721 10725 10729 10733 10738 10743 10747 10750 10754 10757 10761 10764 10768 10771 10773 10776 10779 10782 10785 10787 10790 10793 10796 10798 10801 10804 10807 10810 10812 10814 10816 10818 10819 10821 10822 10823 10823 10824 10824 10824 10824 10823 10822 10821 10820 10819 10819 10818 10816 10815 10813 10811 10810 10808 10807 10805 10803 10802 10800 10798 10796 10793 10790 10787 10785 10783 10781 10780 10779 10778 10777 10775 10774 10772 10770 10769 10767 10765 10763 10761 10759 10756 10754 10752 10749 10747 10744 10741
10725 10729 10733 10737 10741 10745 10748 10752 10756 10759 10763 10766 10769 10771 10773 10776 10779 10782 10785 10787 10790 10793 10796 10799 10801 10804 10807 10810 10812 10813 10814 10816 10818 10820 10821 10821 10821 10821 10821 10821 10820 10820 10819 10818 10818 10817 10816 10815 10814 10812 10811 10809 10807 10806 10805 10803 10801 10799 10797 10795 10792 10790 10787 10785 10783 10781 10780 10779 10778 10777 10776 10774 10773 10772 10770 10768 10766 10764 10762 10760 10758 10756 10754 10752 10749 10747 10744 10741
10729 10732 10736 10739 10743 10746 10750 10753 10757 10760 10763 10766 10768 10771 10774 10776 10779 10782 10785 10788 10791 10793 10796 10799 10801 10804 10807 10809 10811 10813 10813 10815 10816 10818 10819 10819 10819 10818 10818 10818 10817 10817 10816 10816 10815 10815 10814 10813 10811 10810 10808 10806 10805 10804 10802 10800 10798 10796 10794 10791 10789 10787 10785 10783 10781 10780 10779 10778 10777 10776 10775 10774 10773 10771 10769 10768 10766 10764 10762 10760 10758 10756 10754 10751 10749 10747 10744 10741
10732 10735 10738 10741 10745 10748 10751 10754 10758 10761 10763 10766 10768 10771 10774 10777 10780 10782 10785 10788 10791 10794 10796 10799 10801 10804 10806 10808 10810 10812 10812 10813 10814 10815 10816 10816 10816 10816 10815 10815 10815 10814 10814 10813 10813 10812 10811 10810 10808 10807 10806 10804 10803 10801 10799 10797 10795 10793 10791 10788 10786 10785 10783 10782 10780 10779 10778 10777 10776 10775 10774 10773 10772 10771 10769 10767 10765 10763 10762 10760 10758 10756 10753 10751 10749 10747 10744 10742
10734 10737 10740 10744 10747 10750 10752 10755 10758 10761 10764 10766 10769 10772 10775 10777 10780 10783 10785 10788 10791 10794 10796 10799 10801 10803 10805 10807 10809 10810 10811 10811 10812 10812 10813 10813 10813 10813 10813 10813 10812 10812 10812 10811 10811 10810 10809 10808 10806 10805 10803 10802 10800 10799 10796 10793 10791 10789 10788 10786 10784 10783 10782 10780 10779 10778 10777 10776 10775 10775 10774 10773 10771 10770 10768 10767 10765 10763 10761 10760 10758 10756 10753 10751 10749 10747 10744 10742
10736 10740 10743 10746 10749 10751 10754 10757 10759 10762 10765 10767 10770 10773 10775 10777 10780 10783 10786 10789 10791 10794 10796 10798 10800 10802 10804 10805 10807 10808 10809 10809 10809 10809 10810 10810 10810 10810 10810 10810 10810 10810 10809 10809 10808 10807 10807 10806 10805 10803 10801 10799 10798 10796 10793 10790 10788 10787 10785 10784 10782 10781 10780 10779 10779 10778 10777 10776 10775 10774 10773 10772 10771 10769 10768 10766 10765 10763 10761 10760 10758 10756 10754 10751 10749 10747 10744 10742
10738 10742 10744 10747 10750 10753 10755 10758 10760 10763 10765 10768 10770 10773 10775 10778 10781 10784 10786 10789 10791 10793 10795 10797 10799 10801 10802 10804 10804 10805 10805 10806 10807 10807 10807 10808 10808 10808 10808 10808 10808 10808 10807 10806 10806 10805 10804 10803 10802 10800 10798 10796 10794 10792 10789 10787 10785 10784 10783 10782 10781 10780 10779 10778 10778 10777 10776 10775 10774 10774 10773 10772 10771 10769 10768 10766 10765 10763 10761 10760 10758 10756 10753 10751 10749 10747 10744 10742
10740 10743 10745 10748 10751 10754 10756 10758 10761 10764 10766 10768 10771 10773 10776 10779 10781 10784 10787 10789 10791 10792 10794 10796 10797 10799 10800 10801 10801 10801 10802 10804 10804 10805 10806 10806 10806 10806 10806 10806 10805 10805 10804 10804 10803 10803 10802 10801 10799 10798 10795 10792 10790 10788 10786 10784 10783 10782 10781 10780 10779 10778 10778 10777 10777 10776 10775 10774 10774 10773 10773 10771 10770 10769 10767 10766 10764 10763 10761 10759 10757 10755 10753 10751 10749 10747 10744 10742
10742 10744 10746 10749 10752 10754 10756 10759 10762 10764 10767 10769 10771 10774 10776 10779 10782 10784 10786 10788 10790 10791 10792 10794 10795 10796 10797 10797 10798 10799 10800 10801 10802 10803 10803 10804 10804 10804 10804 10803 10803 10802 10802 10801 10801 10800 10800 10798 10796 10794 10791 10789 10787 10785 10783 10782 10781 10780 10779 10778 10778 10777 10776 10776 10776 10775 10774 10774 10773 10773 10772 10771 10770 10768 10767 10765 10764 10763 10761 10759 10757 10755 10753 10751 10749 10746 10744 10741
10743 10745 10748 10750 10752 10755 10757 10760 10763 10765 10767 10770 10772 10774 10777 10779 10782 10784 10785 10786 10788 10789 10790 10791 10792 10793 10794 10795 10796 10798 10798 10799 10800 10800 10801 10801 10801 10801 10801 10801 10800 10799 10799 10799 10798 10798 10796 10795 10793 10790 10787 10785 10784 10783 10781 10780 10779 10778 10777 10777 10776 10776 10775 10775 10774 10774 10773 10773 10773 10772 10771 10770 10769 10768 10767 10765 10764 10762 10761 10759 10757 10755 10753 10751 10748 10746 10743 10741
10744 10747 10749 10751 10753 10756 10758 10761 10763 10765 10768 10770 10772 10774 10777 10779 10781 10782 10783 10784 10786 10787 10788 10789 10791 10792 10793 10794 10795 10796 10797 10798 10798 10799 10799 10799 10799 10798 10798 10798 10798 10797 10797 10796 10796 10795 10793 10791 10789 10786 10784 10782 10781 10780 10779 10778 10777 10777 10776 10775 10775 10775 10774 10774 10773 10773 10773 10772 10772 10771 10770 10769 10768 10767 10766 10765 10763 10762 10760 10758 10757 10755 10753 10750 10748 10746 10743 10741
10745 10748 10750 10751 10753 10756 10759 10762 10764 10766 10768 10770 10772 10774 10776 10778 10780 10781 10782 10783 10784 10785 10787 10788 10789 10791 10791 10792 10794 10794 10795 10796 10796 10796 10797 10796 10796 10796 10796 10795 10795 10794 10794 10794 10793 10792 10790 10788 10785 10783 10781 10779 10778 10778 10777 10776 10775 10775 10774 10774 10774 10773 10773 10773 10772 10772 10772 10771 10771 10770 10769 10768 10767 10766 10765 10764 10762 10761 10759 10757 10756 10754 10752 10750 10748 10745 10743 10740
10746 10748 10750 10752 10753 10756 10760 10762 10764 10766 10768 10770 10771 10773 10775 10777 10778 10779 10780 10782 10783 10783 10785 10786 10787 10788 10789 10790 10791 10792 10793 10793 10794 10794 10794 10794 10794 10794 10794 10793 10792 10792 10791 10791 10790 10788 10786 10784 10782 10780 10778 10777 10776 10775 10775 10774 10774 10773 10773 10773 10772 10772 10772 10772 10771 10771 10771 10771 10770 10769 10768 10767 10766 10765 10764 10763 10761 10760 10758 10756 10755 10753 10751 10749 10747 10744 10742 10739
10746 10749 10751 10752 10753 10756 10759 10761 10763 10766 10768 10769 10770 10772 10774 10775 10777 10778 10779 10780 10780 10781 10783 10783 10785 10786 10787 10787 10788 10789 10790 10791 10791 10792 10792 10792 10792 10792 10791 10791 10790 10789 10789 10788 10786 10785 10783 10781 10779 10778 10776 10775 10774 10773 10773 10772 10772 10772 10772 10771 10771 10771 10771 10771 10770 10770 10770 10770 10769 10768 10767 10766 10765 10764 10763 10761 10760 10758 10757 10755 10754 10752 10750 10748 10746 10743 10741 10738
10746 10748 10751 10752 10753 10755 10757 10759 10761 10764 10766 10768 10770 10771 10773 10774 10775 10776 10777 10778 10778 10780 10781 10782 10783 10784 10784 10785 10786 10787 10788 10789 10789 10789 10790 10790 10790 10789 10789 10788 10788 10787 10786 10784 10783 10781 10780 10778 10777 10775 10773 10772 10772 10771 10771 10771 10771 10771 10770 10770 10770 10769 10769 10769 10769 10769 10769 10768 10768 10767 10766 10765 10764 10763 10762 10760 10759 10757 10756 10754 10753 10751 10749 10747 10745 10742 10739 10737
10745 10747 10749 10751 10753 10754 10756 10758 10760 10762 10764 10767 10769 10770 10772 10773 10774 10775 10776 10777 10777 10779 10780 10780 10781 10782 10782 10783 10784 10785 10786 10786 10787 10787 10787 10787 10787 10787 10786 10786 10785 10784 10782 10781 10780 10778 10777 10775 10774 10772 10771 10770 10770 10769 10769 10769 10769 10769 10769 10769 10768 10768 10768 10768 10768 10768 10768 10767 10767 10766 10764 10764 10763 10762 10761 10760 10758 10757 10755 10753 10751 10749 10747 10745 10743 10741 10739 10736
10744 10746 10748 10750 10752 10754 10756 10758 10760 10762 10764 10766 10767 10769 10770 10771 10772 10773 10775 10775 10776 10777 10778 10778 10779 10780 10780 10781 10782 10783 10783 10784 10784 10785 10785 10785 10785 10784 10784 10783 10782 10780 10779 10778 10777 10775 10774 10772 10771 10770 10769 10768 10768 10768 10768 10768 10768 10768 10767 10767 10767 10767 10767 10767 10767 10766 10766 10766 10765 10764 10763 10762 10762 10761 10760 10758 10757 10755 10754 10752 10750 10748 10746 10744 10742 10740 10738 10735
10743 10745 10747 10749 10751 10753 10755 10757 10759 10760 10763 10765 10766 10768 10769 10770 10771 10772 10773 10774 10774 10775 10776 10776 10777 10777 10778 10779 10779 10780 10781 10781 10782 10782 10782 10782 10782 10782 10781 10780 10779 10777 10776 10775 10773 10772 10771 10769 10768 10767 10767 10766 10766 10766 10766 10766 10766 10766 10766 10766 10766 10766 10766 10766 10765 10765 10765 10764 10763 10762 10761 10761 10760 10759 10758 10757 10755 10754 10752 10750 10749 10747 10745 10743 10741 10739 10737 10735
10742 10744 10746 10748 10750 10752 10754 10755 10757 10759 10761 10763 10764 10766 10767 10768 10769 10770 10771 10772 10772 10772 10773 10774 10774 10775 10776 10776 10777 10777 10778 10779 10779 10779 10779 10779 10779 10779 10778 10777 10776 10774 10773 10771 10770 10769 10768 10766 10766 10765 10765 10765 10765 10765 10765 10765 10765 10764 10764 10764 10764 10765 10764 10764 10764 10764 10763 10763 10762 10761 10760 10759 10759 10758 10757 10755 10754 10752 10751 10749 10747 10746 10744 10741 10739 10737 10736 10734
10740 10742 10745 10747 10749 10751 10752 10754 10756 10758 10759 10761 10762 10763 10765 10766 10767 10768 10769 10769 10769 10770 10771 10772 10772 10772 10773 10774 10774 10775 10775 10776 10776 10777 10777 10777 10776 10776 10775 10774 10772 10771 10769 10768 10767 10766 10765 10764 10764 10763 10763 10763 10763 10763 10763 10763 10763 10763 10763 10763 10763 10763 10763 10763 10762 10762 10762 10761 10760 10760 10759 10758 10757 10756 10755 10754 10752 10751 10749 10748 10746 10744 10742 10740 10738 10736 10734 10733
10739 10741 10743 10746 10748 10750 10751 10753 10755 10756 10758 10759 10761 10762 10763 10764 10765 10766 10767 10767 10767 10768 10768 10769 10769 10770 10770 10771 10771 10772 10772 10773 10773 10774 10774 10774 10773 10773 10772 10770 10769 10767 10766 10765 10763 10763 10762 10762 10762 10762 10762 10762 10762 10762 10761 10761 10761 10761 10761 10761 10762 10762 10761 10761 10761 10760 10760 10760 10759 10758 10757 10756 10755 10754 10753 10752 10751 10749 10748 10746 10745 10743 10741 10739 10737 10735 10733 10731
10739 10741 10742 10744 10746 10748 10750 10752 10753 10755 10757 10758 10759 10760 10761 10762 10762 10763 10764 10764 10764 10765 10766 10766 10766 10766 10767 10767 10768 10769 10770 10770 10771 10771 10771 10771 10770 10769 10768 10767 10765 10764 10763 10762 10761 10760 10760 10760 10760 10760 10760 10760 10760 10760 10759 10759 10759 10760 10760 10760 10760 10760 10760 10759 10759 10759 10758 10758 10757 10756 10755 10754 10753 10753 10752 10751 10749 10748 10746 10745 10743 10741 10739 10738 10736 10734 10732 10730
10738 10739 10741 10743 10745 10747 10748 10750 10752 10753 10755 10756 10757 10758 10759 10759 10760 10760 10760 10761 10762 10762 10762 10762 10763 10763 10763 10764 10765 10766 10767 10767 10768 10768 10768 10767 10766 10766 10764 10763 10762 10760 10759 10759 10758 10758 10758 10758 10758 10759 10758 10758 10758 10758 10758 10758 10758 10758 10758 10758 10758 10758 10758 10757 10757 10757 10756 10756 10755 10754 10753 10752 10752 10751 10750 10749 10748 10746 10744 10743 10741 10739 10738 10737 10735 10733 10731 10729
10736 10737 10739 10741 10743 10745 10747 10748 10750 10751 10753 10754 10755 10755 10755 10756 10756 10757 10757 10758 10759 10759 10759 10759 10760 10760 10760 10761 10762 10763 10763 10764 10764 10764 10764 10764 10763 10762 10761 10759 10758 10757 10756 10756 10756 10756 10756 10756 10757 10757 10757 10756 10756 10756 10756 10756 10756 10756 10756 10756 10756 10756 10756 10755 10755 10755 10754 10754 10753 10753 10752 10750 10749 10749 10748 10747 10746 10744 10742 10741 10739 10738 10736 10735 10733 10732 10730 10728
10734 10735 10737 10739 10741 10742 10744 10745 10747 10749 10750 10751 10752 10752 10752 10753 10753 10754 10755 10755 10756 10756 10756 10756 10756 10756 10757 10757 10758 10759 10760 10761 10761 10761 10761 10760 10759 10758 10757 10756 10755 10754 10754 10754 10754 10754 10754 10755 10755 10755 10755 10755 10755 10754 10754 10754 10754 10754 10754 10754 10754 10754 10753 10753 10753 10753 10752 10751 10751 10750 10750 10749 10747 10747 10746 10745 10743 10742 10740 10739 10737 10736 10734 10733 10732 10730 10728 10726
10731 10733 10735 10736 10738 10739 10741 10742 10744 10746 10747 10747 10748 10749 10749 10750 10750 10751 10752 10752 10752 10753 10752 10752 10753 10753 10754 10754 10755 10756 10757 10758 10758 10758 10757 10757 10756 10755 10754 10753 10752 10752 10751 10751 10752 10752 10752 10753 10753 10753 10753 10753 10753 10753 10753 10753 10752 10752 10752 10752 10752 10752 10751 10751 10751 10751 10750 10749 10748 10747 10747 10746 10745 10744 10743 10742 10741 10740 10738 10737 10735 10734 10733 10731 10730 10728 10726 10724
10728 10730 10732 10733 10735 10736 10738 10739 10741 10743 10743 10744 10745 10745 10746 10747 10747 10748 10748 10748 10749 10749 10749 10749 10749 10750 10750 10751 10752 10753 10754 10754 10754 10754 10754 10753 10752 10751 10750 10750 10749 10749 10749 10749 10750 10750 10750 10751 10751 10751 10751 10751 10751 10751 10751 10751 10751 10750 10750 10750 10750 10749 10749 10749 10748 10748 10747 10747 10745 10744 10744 10744 10743 10742 10741 10740 10738 10737 10736 10735 10733 10732 10731 10729 10727 10726 10724 10722
10724 10726 10728 10730 10732 10733 10735 10736 10738 10739 10740 10741 10742 10742 10743 10743 10744 10744 10744 10744 10745 10745 10746 10746 10746 10747 10748 10748 10749 10750 10750 10751 10751 10751 10750 10749 10749 10748 10747 10747 10747 10747 10747 10747 10747 10748 10748 10748 10749 10749 10749 10749 10748 10748 10749 10748 10748 10748 10748 10747 10747 10747 10746 10746 10746 10745 10745 10744 10743 10742 10741 10741 10740 10739 10738 10737 10736 10734 10733 10733 10731 10730 10728 10727 10725 10723 10722 10720
10721 10723 10725 10727 10729 10730 10731 10733 10734 10735 10736 10737 10738 10739 10739 10739 10740 10740 10740 10740 10741 10741 10742 10743 10743 10744 10745 10745 10746 10746 10747 10747 10747 10747 10747 10746 10745 10745 10745 10745 10745 10745 10745 10745 10745 10746 10746 10746 10746 10746 10746 10746 10746 10746 10746 10746 10746 10745 10745 10745 10744 10744 10744 10743 10743 10742 10742 10741 10740 10740 10739 10738 10737 10736 10735 10734 10733 10732 10731 10730 10729 10728 10726 10725 10723 10721 10719 10718
10719 10721 10722 10724 10725 10727 10728 10729 10730 10731 10732 10734 10734 10734 10735 10735 10735 10736 10736 10737 10737 10738 10739 10740 10741 10741 10742 10742 10742 10743 10744 10744 10744 10744 10743 10743 10742 10742 10742 10742 10742 10743 10743 10743 10743 10743 10743 10743 10743 10743 10743 10743 10743 10744 10744 10744 10743 10743 10743 10742 10742 10741 10741 10741 10740 10740 10739 10738 10737 10736 10736 10736 10735 10733 10732 10731 10730 10729 10728 10727 10726 10725 10724 10722 10720 10719 10717 10715
10716 10718 10719 10720 10722 10723 10724 10726 10727 10727 10728 10729 10730 10730 10731 10731 10731 10732 10733 10734 10735 10735 10736 10737 10737 10738 10738 10739 10739 10740 10740 10740 10740 10740 10740 10739 10739 10739 10739 10740 10740 10740 10740 10740 10740 10740 10741 10741 10740 10741 10741 10740 10741 10741 10741 10741 10740 10740 10740 10739 10739 10739 10738 10738 10737 10737 10736 10735 10733 10732 10732 10733 10733 10731 10730 10728 10727 10727 10725 10724 10723 10722 10721 10719 10717 10716 10714 10711
10713 10714 10715 10716 10718 10719 10720 10721 10722 10723 10723 10724 10725 10726 10726 10727 10728 10729 10729 10731 10732 10732 10733 10734 10734 10735 10735 10736 10736 10737 10737 10737 10737 10736 10736 10736 10736 10736 10737 10737 10737 10737 10737 10738 10738 10738 10738 10738 10738 10738 10738 10738 10738 10738 10738 10738 10737 10737 10737 10736 10736 10736 10735 10735 10734 10734 10733 10732 10731 10728 10727 10728 10729 10728 10727 10725 10725 10724 10722 10721 10720 10719 10718 10716 10714 10712 10710 10708
10709 10710 10711 10712 10713 10714 10716 10717 10717 10718 10719 10720 10721 10721 10722 10723 10724 10725 10726 10727 10728 10729 10729 10730 10731 10731 10732 10732 10733 10733 10733 10733 10733 10733 10733 10733 10733 10733 10734 10734 10734 10734 10735 10735 10735 10735 10735 10735 10735 10735 10735 10735 10735 10735 10735 10735 10734 10734 10734 10733 10733 10732 10732 10731 10731 10730 10730 10729 10728 10725 10722 10724 10725 10723 10721 10721 10721 10721 10719 10718 10717 10715 10714 10713 10711 10709 10706 10704
10705 10706 10707 10708 10710 10711 10712 10713 10713 10714 10715 10716 10717 10718 10719 10720 10720 10721 10723 10724 10724 10725 10726 10726 10727 10728 10728 10729 10729 10729 10729 10729 10729 10729 10729 10729 10730 10730 10730 10731 10731 10731 10732 10732 10732 10732 10732 10732 10732 10732 10732 10732 10732 10732 10732 10731 10731 10731 10730 10730 10729 10729 10728 10728 10727 10726 10726 10725 10725 10722 10718 10720 10722 10719 10716 10716 10717 10717 10715 10714 10713 10712 10711 10709 10707 10705 10703 10700
10702 10703 10704 10705 10707 10707 10708 10709 10710 10711 10712 10712 10713 10714 10715 10716 10717 10718 10719 10720 10720 10721 10722 10722 10723 10724 10724 10725 10725 10725 10725 10725 10725 10725 10725 10726 10726 10727 10727 10728 10728 10728 10729 10729 10729 10729 10729 10730 10729 10729 10729 10729 10729 10729 10728 10728 10728 10727 10727 10726 10726 10725 10725 10724 10723 10722 10722 10721 10722 10719 10714 10715 10718 10717 10713 10711 10712 10712 10710 10708 10708 10707 10706 10705 10703 10701 10699 10696
10699 10700 10701 10702 10703 10704 10705 10706 10706 10707 10708 10708 10709 10710 10711 10711 10712 10713 10714 10715 10716 10716 10717 10718 10718 10719 10720 10720 10721 10721 10721 10721 10721 10721 10722 10722 10723 10724 10724 10725 10725 10725 10726 10726 10726 10726 10726 10726 10726 10726 10726 10726 10726 10725 10725 10725 10724 10724 10723 10723 10722 10721 10721 10720 10719 10718 10717 10716 10718 10716 10710 10709 10713 10712 10709 10708 10708 10707 10705 10704 10703 10702 10702 10701 10699 10697 10695 10693
10695 10696 10698 10699 10699 10700 10701 10701 10702 10703 10703 10704 10705 10706 10706 10707 10708 10709 10709 10710 10711 10712 10712 10713 10714 10715 10715 10716 10716 10716 10717 10717 10717 10717 10718 10719 10720 10721 10721 10721 10722 10722 10722 10723 10723 10723 10723 10723 10723 10723 10723 10723 10723 10722 10721 10721 10721 10720 10719 10719 10718 10717 10716 10716 10714 10713 10712 10712 10713 10711 10706 10704 10706 10707 10705 10705 10705 10703 10700 10699 10699 10698 10697 10696 10695 10693 10691 10689
10691 10692 10693 10694 10695 10696 10697 10697 10698 10699 10699 10700 10700 10701 10702 10702 10703 10704 10704 10705 10706 10707 10707 10708 10709 10710 10710 10711 10711 10712 10712 10712 10713 10714 10714 10715 10716 10717 10718 10718 10718 10719 10719 10719 10719 10719 10719 10719 10720 10720 10719 10719 10719 10718 10718 10717 10717 10716 10715 10714 10714 10713 10712 10711 10710 10709 10708 10708 10707 10704 10703 10701 10698 10698 10702 10702 10701 10700 10695 10693 10694 10694 10693 10692 10690 10688 10686 10684
10687 10688 10689 10690 10691 10692 10692 10693 10694 10694 10695 10695 10696 10696 10697 10697 10698 10699 10699 10700 10700 10701 10702 10702 10703 10704 10705 10706 10706 10707 10707 10708 10709 10710 10711 10712 10713 10713 10714 10715 10715 10715 10715 10715 10716 10716 10716 10716 10716 10716 10716 10715 10715 10714 10714 10714 10713 10712 10710 10709 10709 10708 10707 10706 10705 10704 10704 10705 10702 10696 10698 10700 10690 10687 10695 10698 10697 10696 10692 10689 10688 10688 10688 10688 10685 10683 10681 10679
10683 10684 10685 10686 10687 10687 10688 10688 10689 10689 10690 10690 10691 10691 10692 10692 10692 10693 10693 10694 10694 10695 10696 10696 10697 10699 10700 10700 10701 10702 10703 10705 10706 10707 10708 10709 10709 10710 10711 10711 10711 10711 10711 10712 10712 10712 10712 10711 10712 10712 10712 10711 10711 10710 10710 10710 10709 10708 10706 10704 10704 10704 10703 10701 10699 10698 10699 10701 10698 10690 10692 10696 10686 10680 10686 10690 10689 10690 10688 10685 10683 10682 10682 10681 10680 10677 10675 10673
10679 10679 10680 10681 10682 10682 10683 10683 10684 10684 10684 10685 10685 10685 10685 10686 10686 10686 10687 10687 10688 10688 10689 10690 10692 10693 10694 10695 10696 10698 10700 10701 10702 10703 10704 10705 10706 10706 10707 10707 10707 10707 10708 10708 10708 10708 10708 10707 10707 10709 10708 10707 10707 10706 10705 10706 10705 10703 10701 10698 10697 10698 10698 10697 10694 10692 10693 10696 10693 10688 10687 10687 10681 10679 10682 10682 10681 10683 10682 10680 10678 10677 10676 10674 10673 10672 10670 10667
10674 10674 10675 10676 10676 10677 10677 10678 10678 10678 10679 10679 10679 10679 10679 10680 10680 10680 10681 10681 10682 10683 10684 10685 10687 10688 10689 10691 10693 10694 10697 10698 10699 10699 10701 10702 10702 10703 10703 10703 10703 10703 10704 10704 10704 10704 10704 10703 10703 10705 10704 10702 10702 10701 10701 10701 10700 10699 10695 10692 10691 10693 10693 10691 10688 10686 10688 10689 10687 10685 10684 10678 10673 10676 10679 10675 10674 10676 10675 10674 10673 10672 10671 10668 10666 10665 10663 10661
10669 10669 10670 10671 10671 10672 10672 10673 10673 10673 10673 10674 10674 10674 10675 10675 10675 10676 10676 10677 10678 10679 10680 10682 10683 10684 10686 10688 10690 10692 10693 10694 10695 10696 10697 10698 10698 10699 10699 10699 10699 10699 10700 10700 10700 10700 10700 10699 10699 10700 10700 10698 10697 10697 10697 10697 10697 10695 10689 10684 10686 10688 10686 10684 10682 10680 10681 10682 10680 10679 10678 10673 10668 10670 10672 10669 10668 10668 10667 10666 10666 10665 10664 10662 10659 10657 10655 10653
10665 10665 10666 10667 10667 10668 10668 10668 10669 10669 10669 10670 10670 10671 10671 10671 10672 10672 10673 10674 10675 10676 10677 10679 10680 10682 10683 10685 10687 10689 10690 10691 10692 10693 10694 10694 10694 10695 10695 10695 10695 10695 10695 10695 10696 10695 10695 10695 10695 10696 10697 10693 10691 10692 10693 10693 10694 10692 10683 10679 10681 10682 10679 10677 10676 10673 10673 10675 10675 10673 10671 10667 10664 10665 10665 10662 10661 10661 10660 10659 10658 10657 10656 10654 10652 10650 10647 10644
10662 10663 10663 10664 10664 10665 10665 10665 10666 10666 10666 10667 10668 10668 10668 10669 10669 10670 10671 10672 10673 10674 10675 10677 10678 10680 10681 10683 10685 10686 10687 10687 10688 10689 10690 10690 10691 10691 10692 10691 10691 10691 10691 10691 10691 10690 10691 10691 10690 10691 10693 10690 10687 10686 10687 10689 10691 10686 10678 10676 10676 10674 10673 10672 10669 10666 10665 10668 10669 10667 10663 10660 10659 10661 10660 10657 10655 10654 10654 10652 10651 10650 10648 10645 10643 10641 10639 10636